,,,PA_Meas_PMT16A,,PR_Meas_QMR101_102,,RH_Meas_QMH101,,SR_Meas_QMS101,,TA_Meas_QMH101,,GenWind,,GenWind,
date,time,status,PA,status,PR,status,RH,status,SR,status,TA,status,DirAvg,status,SpdAvg,
2010-01-07, 00:00:04,VALID,1010.48,VALID,0,VALID,28.5356,VALID,0,VALID,23.5186,VALID,40,VALID,0,
2010-01-07, 00:01:04,VALID,1010.47,VALID,0,VALID,28.5737,VALID,0,VALID,23.4992,VALID,40,VALID,0,
2010-01-07, 00:02:04,VALID,1010.45,VALID,0,VALID,28.5661,VALID,0,VALID,23.4992,VALID,40,VALID,0,
2010-01-07, 00:03:04,VALID,1010.47,VALID,0,VALID,28.5279,VALID,0,VALID,23.4797,VALID,40,VALID,0,
2010-01-07, 00:04:04,VALID,1010.45,VALID,0,VALID,28.6118,VALID,0,VALID,23.4602,VALID,40,VALID,0,
2010-01-07, 00:05:04,VALID,1010.44,VALID,0,VALID,28.5737,VALID,0,VALID,23.4602,VALID,40,VALID,0,
2010-01-07, 00:06:04,VALID,1010.44,VALID,0,VALID,28.5432,VALID,0,VALID,23.4602,VALID,40,VALID,0,
2010-01-07, 00:07:04,VALID,1010.45,VALID,0,VALID,28.6423,VALID,0,VALID,23.4407,VALID,40,VALID,0,
2010-01-07, 00:08:04,VALID,1010.46,VALID,0,VALID,28.6347,VALID,0,VALID,23.4602,VALID,40,VALID,0,
2010-01-07, 00:09:04,VALID,1010.47,VALID,0,VALID,28.6195,VALID,0,VALID,23.4212,VALID,40,VALID,0,
2010-01-07, 00:10:04,VALID,1010.47,VALID,0,VALID,28.6423,VALID,0,VALID,23.4212,VALID,40,VALID,0,
2010-01-07, 00:11:04,VALID,1010.48,VALID,0,VALID,28.6805,VALID,0,VALID,23.4017,VALID,40,VALID,0,
2010-01-07, 00:12:04,VALID,1010.5,VALID,0,VALID,28.6576,VALID,0,VALID,23.4017,VALID,40,VALID,0,
2010-01-07, 00:13:04,VALID,1010.51,VALID,0,VALID,28.5966,VALID,0,VALID,23.4017,VALID,40,VALID,0,
2010-01-07, 00:14:04,VALID,1010.48,VALID,0,VALID,28.6805,VALID,0,VALID,23.4017,VALID,40,VALID,0,
2010-01-07, 00:15:04,VALID,1010.48,VALID,0,VALID,28.6957,VALID,0.105969,VALID,23.4017,VALID,40,VALID,0,
2010-01-07, 00:16:04,VALID,1010.49,VALID,0,VALID,28.7338,VALID,0,VALID,23.4017,VALID,40,VALID,0,
2010-01-07, 00:17:04,VALID,1010.49,VALID,0,VALID,28.711,VALID,0,VALID,23.4017,VALID,40,VALID,0,
2010-01-07, 00:18:04,VALID,1010.48,VALID,0,VALID,28.7567,VALID,0,VALID,23.4017,VALID,40,VALID,0,
2010-01-07, 00:19:04,VALID,1010.5,VALID,0,VALID,28.6881,VALID,0,VALID,23.4017,VALID,40,VALID,0,
2010-01-07, 00:20:04,VALID,1010.48,VALID,0,VALID,28.7033,VALID,0,VALID,23.4017,VALID,40,VALID,0,
2010-01-07, 00:21:04,VALID,1010.47,VALID,0,VALID,28.7033,VALID,0,VALID,23.4017,VALID,40,VALID,0,
2010-01-07, 00:22:04,VALID,1010.47,VALID,0,VALID,28.7415,VALID,0,VALID,23.423,VALID,40,VALID,0,
2010-01-07, 00:23:04,VALID,1010.48,VALID,0,VALID,28.7415,VALID,0,VALID,23.4212,VALID,40,VALID,0,
2010-01-07, 00:24:04,VALID,1010.47,VALID,0,VALID,28.6652,VALID,0,VALID,23.4212,VALID,40,VALID,0,
2010-01-07, 00:25:04,VALID,1010.49,VALID,0,VALID,28.6805,VALID,0,VALID,23.4407,VALID,40,VALID,0,
2010-01-07, 00:26:04,VALID,1010.52,VALID,0,VALID,28.7033,VALID,0,VALID,23.4815,VALID,40,VALID,0,
2010-01-07, 00:27:04,VALID,1010.47,VALID,0,VALID,28.7186,VALID,0,VALID,23.4407,VALID,40,VALID,0,
2010-01-07, 00:28:04,VALID,1010.47,VALID,0,VALID,28.6957,VALID,0,VALID,23.4602,VALID,40,VALID,0,
2010-01-07, 00:29:04,VALID,1010.46,VALID,0,VALID,28.6576,VALID,0,VALID,23.4407,VALID,40,VALID,0,
2010-01-07, 00:30:04,VALID,1010.45,VALID,0,VALID,28.7262,VALID,0,VALID,23.4602,VALID,40,VALID,0,
2010-01-07, 00:31:04,VALID,1010.48,VALID,0,VALID,28.6576,VALID,0,VALID,23.4602,VALID,40,VALID,0,
2010-01-07, 00:32:04,VALID,1010.43,VALID,0,VALID,28.6881,VALID,0,VALID,23.4602,VALID,40,VALID,0,
2010-01-07, 00:33:04,VALID,1010.45,VALID,0,VALID,28.6957,VALID,0,VALID,23.4602,VALID,40,VALID,0,
2010-01-07, 00:34:04,VALID,1010.43,VALID,0,VALID,28.7033,VALID,0,VALID,23.4602,VALID,40,VALID,0,
2010-01-07, 00:35:04,VALID,1010.41,VALID,0,VALID,28.7033,VALID,0,VALID,23.4815,VALID,40,VALID,0,
2010-01-07, 00:36:04,VALID,1010.38,VALID,0,VALID,28.6271,VALID,0,VALID,23.4602,VALID,40,VALID,0,
2010-01-07, 00:37:04,VALID,1010.38,VALID,0,VALID,28.6652,VALID,0,VALID,23.4797,VALID,40,VALID,0,
2010-01-07, 00:38:04,VALID,1010.34,VALID,0,VALID,28.5889,VALID,0,VALID,23.4797,VALID,40,VALID,0,
2010-01-07, 00:39:04,VALID,1010.35,VALID,0,VALID,28.6423,VALID,0,VALID,23.4797,VALID,40,VALID,0,
2010-01-07, 00:40:04,VALID,1010.34,VALID,0,VALID,28.6728,VALID,0,VALID,23.4815,VALID,40,VALID,0,
2010-01-07, 00:41:04,VALID,1010.29,VALID,0,VALID,28.6957,VALID,0,VALID,23.4407,VALID,40,VALID,0,
2010-01-07, 00:42:04,VALID,1010.28,VALID,0,VALID,28.6957,VALID,0,VALID,23.4212,VALID,40,VALID,0,
2010-01-07, 00:43:04,VALID,1010.27,VALID,0,VALID,28.7338,VALID,0,VALID,23.4212,VALID,40,VALID,0,
2010-01-07, 00:44:04,VALID,1010.26,VALID,0,VALID,28.6957,VALID,0,VALID,23.4212,VALID,40,VALID,0,
2010-01-07, 00:45:04,VALID,1010.26,VALID,0,VALID,28.7033,VALID,0,VALID,23.4425,VALID,40,VALID,0,
2010-01-07, 00:46:04,VALID,1010.22,VALID,0,VALID,28.7262,VALID,0,VALID,23.4017,VALID,40,VALID,0,
2010-01-07, 00:47:04,VALID,1010.19,VALID,0,VALID,28.7643,VALID,0,VALID,23.4017,VALID,40,VALID,0,
2010-01-07, 00:48:04,VALID,1010.18,VALID,0,VALID,28.7262,VALID,0,VALID,23.3823,VALID,40,VALID,0,
2010-01-07, 00:49:04,VALID,1010.16,VALID,0,VALID,28.7338,VALID,0,VALID,23.3628,VALID,40,VALID,0,
2010-01-07, 00:50:04,VALID,1010.15,VALID,0,VALID,28.711,VALID,0,VALID,23.3645,VALID,40,VALID,0,
2010-01-07, 00:51:04,VALID,1010.14,VALID,0,VALID,28.7643,VALID,0,VALID,23.3433,VALID,40,VALID,0,
2010-01-07, 00:52:04,VALID,1010.1,VALID,0,VALID,28.7643,VALID,0,VALID,23.3433,VALID,40,VALID,0,
2010-01-07, 00:53:04,VALID,1010.09,VALID,0,VALID,28.8025,VALID,0,VALID,23.3433,VALID,40,VALID,0,
2010-01-07, 00:54:04,VALID,1010.09,VALID,0,VALID,28.8406,VALID,0,VALID,23.3433,VALID,40,VALID,0,
2010-01-07, 00:55:04,VALID,1010.07,VALID,0,VALID,28.7338,VALID,0,VALID,23.3645,VALID,40,VALID,0,
2010-01-07, 00:56:04,VALID,1010.04,VALID,0,VALID,28.7491,VALID,0,VALID,23.3238,VALID,40,VALID,0,
2010-01-07, 00:57:04,VALID,1010.02,VALID,0,VALID,28.8177,VALID,0,VALID,23.3238,VALID,40,VALID,0,
2010-01-07, 00:58:04,VALID,1009.97,VALID,0,VALID,28.8025,VALID,0,VALID,23.3043,VALID,40,VALID,0,
2010-01-07, 00:59:04,VALID,1010,VALID,0,VALID,28.833,VALID,0,VALID,23.3238,VALID,40,VALID,0,
2010-01-07, 01:00:04,VALID,1009.96,VALID,0,VALID,28.8711,VALID,0,VALID,23.3043,VALID,40,VALID,0,
2010-01-07, 01:01:04,VALID,1009.95,VALID,0,VALID,28.8711,VALID,0,VALID,23.2848,VALID,40,VALID,0,
2010-01-07, 01:02:04,VALID,1009.97,VALID,0,VALID,28.833,VALID,0,VALID,23.3061,VALID,40,VALID,0,
2010-01-07, 01:03:04,VALID,1009.93,VALID,0,VALID,28.833,VALID,0,VALID,23.2654,VALID,40,VALID,0,
2010-01-07, 01:04:04,VALID,1009.92,VALID,0,VALID,28.8482,VALID,0,VALID,23.2654,VALID,40,VALID,0,
2010-01-07, 01:05:04,VALID,1009.92,VALID,0,VALID,28.894,VALID,0,VALID,23.2866,VALID,40,VALID,0,
2010-01-07, 01:06:04,VALID,1009.91,VALID,0,VALID,28.894,VALID,0,VALID,23.2671,VALID,40,VALID,0,
2010-01-07, 01:07:04,VALID,1009.88,VALID,0,VALID,28.9092,VALID,0,VALID,23.2459,VALID,40,VALID,0,
2010-01-07, 01:08:04,VALID,1009.87,VALID,0,VALID,28.9245,VALID,0,VALID,23.2459,VALID,40,VALID,0,
2010-01-07, 01:09:04,VALID,1009.81,VALID,0,VALID,28.8864,VALID,0,VALID,23.2459,VALID,40,VALID,0.172266,
2010-01-07, 01:10:04,VALID,1009.78,VALID,0,VALID,28.9397,VALID,0,VALID,23.2459,VALID,40,VALID,0.274609,
2010-01-07, 01:11:04,VALID,1009.75,VALID,0,VALID,28.8635,VALID,0,VALID,23.2264,VALID,40,VALID,0.302734,
2010-01-07, 01:12:04,VALID,1009.76,VALID,0,VALID,28.8711,VALID,0,VALID,23.2459,VALID,40,VALID,0.204297,
2010-01-07, 01:13:04,VALID,1009.74,VALID,0,VALID,28.8253,VALID,0,VALID,23.2459,VALID,40,VALID,0.0226563,
2010-01-07, 01:14:04,VALID,1009.71,VALID,0,VALID,28.8635,VALID,0,VALID,23.2459,VALID,40,VALID,0.141797,
2010-01-07, 01:15:04,VALID,1009.72,VALID,0,VALID,28.9169,VALID,0,VALID,23.2476,VALID,40,VALID,0.0117188,
2010-01-07, 01:16:04,VALID,1009.69,VALID,0,VALID,28.8482,VALID,0,VALID,23.2051,VALID,40,VALID,0,
2010-01-07, 01:17:04,VALID,1009.65,VALID,0,VALID,28.9245,VALID,0,VALID,23.2282,VALID,40,VALID,0,
2010-01-07, 01:18:04,VALID,1009.65,VALID,0,VALID,28.9626,VALID,0,VALID,23.2087,VALID,40,VALID,0,
2010-01-07, 01:19:04,VALID,1009.6,VALID,0,VALID,28.9016,VALID,0,VALID,23.1679,VALID,40,VALID,0,
2010-01-07, 01:20:04,VALID,1009.57,VALID,0,VALID,28.9779,VALID,0,VALID,23.1697,VALID,40,VALID,0,
2010-01-07, 01:21:04,VALID,1009.6,VALID,0,VALID,28.9702,VALID,0,VALID,23.129,VALID,40,VALID,0,
2010-01-07, 01:22:04,VALID,1009.55,VALID,0,VALID,28.9855,VALID,0,VALID,23.1095,VALID,40,VALID,0,
2010-01-07, 01:23:04,VALID,1009.54,VALID,0,VALID,29.0084,VALID,0,VALID,23.1307,VALID,40,VALID,0,
2010-01-07, 01:24:04,VALID,1009.52,VALID,0,VALID,29.0541,VALID,0,VALID,23.09,VALID,40,VALID,0,
2010-01-07, 01:25:04,VALID,1009.5,VALID,0,VALID,28.9626,VALID,0,VALID,23.1095,VALID,40,VALID,0,
2010-01-07, 01:26:04,VALID,1009.49,VALID,0,VALID,29.0007,VALID,0,VALID,23.1095,VALID,40,VALID,0,
2010-01-07, 01:27:04,VALID,1009.46,VALID,0,VALID,29.0389,VALID,0,VALID,23.09,VALID,40,VALID,0,
2010-01-07, 01:28:04,VALID,1009.44,VALID,0,VALID,29.016,VALID,0,VALID,23.1095,VALID,40,VALID,0,
2010-01-07, 01:29:04,VALID,1009.42,VALID,0,VALID,29.0084,VALID,0,VALID,23.1112,VALID,40,VALID,0,
2010-01-07, 01:30:04,VALID,1009.37,VALID,0,VALID,28.9702,VALID,0,VALID,23.09,VALID,40,VALID,0,
2010-01-07, 01:31:04,VALID,1009.35,VALID,0,VALID,29.0236,VALID,0,VALID,23.1095,VALID,40,VALID,0,
2010-01-07, 01:32:04,VALID,1009.36,VALID,0,VALID,29.0007,VALID,0,VALID,23.1095,VALID,40,VALID,0.137891,
2010-01-07, 01:33:04,VALID,1009.33,VALID,0,VALID,28.9397,VALID,0,VALID,23.1095,VALID,40,VALID,0,
2010-01-07, 01:34:04,VALID,1009.33,VALID,0,VALID,28.9016,VALID,0,VALID,23.1502,VALID,40,VALID,0.220703,
2010-01-07, 01:35:04,VALID,1009.34,VALID,0,VALID,28.8559,VALID,0,VALID,23.129,VALID,40,VALID,0.0078125,
2010-01-07, 01:36:04,VALID,1009.3,VALID,0,VALID,28.894,VALID,0,VALID,23.1697,VALID,40,VALID,0,
2010-01-07, 01:37:04,VALID,1009.3,VALID,0,VALID,28.9626,VALID,0,VALID,23.1485,VALID,40,VALID,0,
2010-01-07, 01:38:04,VALID,1009.31,VALID,0,VALID,28.9397,VALID,0,VALID,23.1697,VALID,40,VALID,0,
2010-01-07, 01:39:04,VALID,1009.28,VALID,0,VALID,28.9016,VALID,0,VALID,23.1697,VALID,40,VALID,0.00195313,
2010-01-07, 01:40:04,VALID,1009.28,VALID,0,VALID,28.8482,VALID,0,VALID,23.1892,VALID,40,VALID,0,
2010-01-07, 01:41:04,VALID,1009.3,VALID,0,VALID,28.9016,VALID,0,VALID,23.1697,VALID,40,VALID,0,
2010-01-07, 01:42:04,VALID,1009.27,VALID,0,VALID,28.8559,VALID,0,VALID,23.1874,VALID,40,VALID,0,
2010-01-07, 01:43:04,VALID,1009.28,VALID,0,VALID,28.9321,VALID,0.105969,VALID,23.1662,VALID,40,VALID,0,
2010-01-07, 01:44:04,VALID,1009.27,VALID,0,VALID,28.8635,VALID,0.105969,VALID,23.1874,VALID,40,VALID,0,
2010-01-07, 01:45:04,VALID,1009.26,VALID,0,VALID,28.7872,VALID,0.105969,VALID,23.1662,VALID,40,VALID,0,
2010-01-07, 01:46:04,VALID,1009.27,VALID,0,VALID,28.8559,VALID,0,VALID,23.1662,VALID,40,VALID,0,
2010-01-07, 01:47:04,VALID,1009.27,VALID,0,VALID,28.8101,VALID,0.105969,VALID,23.2069,VALID,40,VALID,0,
2010-01-07, 01:48:04,VALID,1009.23,VALID,0,VALID,28.7948,VALID,0,VALID,23.1662,VALID,40,VALID,0.0105469,
2010-01-07, 01:49:04,VALID,1009.23,VALID,0,VALID,28.894,VALID,0.105969,VALID,23.1874,VALID,40,VALID,0,
2010-01-07, 01:50:04,VALID,1009.22,VALID,0,VALID,28.8864,VALID,0,VALID,23.1874,VALID,40,VALID,0,
2010-01-07, 01:51:04,VALID,1009.22,VALID,0,VALID,28.9245,VALID,0.105969,VALID,23.1662,VALID,40,VALID,0,
2010-01-07, 01:52:04,VALID,1009.21,VALID,0,VALID,28.8635,VALID,0,VALID,23.1662,VALID,40,VALID,0,
2010-01-07, 01:53:04,VALID,1009.2,VALID,0,VALID,28.8482,VALID,0,VALID,23.1874,VALID,40,VALID,0.195313,
2010-01-07, 01:54:04,VALID,1009.18,VALID,0,VALID,28.9092,VALID,0.105969,VALID,23.1857,VALID,40,VALID,0.0242187,
2010-01-07, 01:55:04,VALID,1009.17,VALID,0,VALID,28.9092,VALID,0.105969,VALID,23.1874,VALID,40,VALID,0,
2010-01-07, 01:56:04,VALID,1009.15,VALID,0,VALID,28.8787,VALID,0.105969,VALID,23.1857,VALID,40,VALID,0,
2010-01-07, 01:57:04,VALID,1009.15,VALID,0,VALID,28.9169,VALID,0,VALID,23.1679,VALID,40,VALID,0,
2010-01-07, 01:58:04,VALID,1009.14,VALID,0,VALID,28.9321,VALID,0,VALID,23.1679,VALID,40,VALID,0,
2010-01-07, 01:59:04,VALID,1009.13,VALID,0,VALID,28.9169,VALID,0,VALID,23.1679,VALID,40,VALID,0,
2010-01-07, 02:00:04,VALID,1009.12,VALID,0,VALID,28.9321,VALID,0,VALID,23.1679,VALID,40,VALID,0,
2010-01-07, 02:01:04,VALID,1009.12,VALID,0,VALID,28.8787,VALID,0,VALID,23.1874,VALID,40,VALID,0,
2010-01-07, 02:02:04,VALID,1009.13,VALID,0,VALID,28.9092,VALID,0,VALID,23.1874,VALID,40,VALID,0,
2010-01-07, 02:03:04,VALID,1009.12,VALID,0,VALID,28.9245,VALID,0,VALID,23.1679,VALID,40,VALID,0,
2010-01-07, 02:04:04,VALID,1009.13,VALID,0,VALID,28.9626,VALID,0,VALID,23.1679,VALID,40,VALID,0,
2010-01-07, 02:05:04,VALID,1009.12,VALID,0,VALID,28.9092,VALID,0,VALID,23.1892,VALID,40,VALID,0.2125,
2010-01-07, 02:06:04,VALID,1009.1,VALID,0,VALID,28.8711,VALID,0,VALID,23.1679,VALID,40,VALID,0,
2010-01-07, 02:07:04,VALID,1009.11,VALID,0,VALID,28.9169,VALID,0,VALID,23.1874,VALID,40,VALID,0.0015625,
2010-01-07, 02:08:04,VALID,1009.11,VALID,0,VALID,28.9092,VALID,0,VALID,23.1874,VALID,40,VALID,0.0351563,
2010-01-07, 02:09:04,VALID,1009.08,VALID,0,VALID,28.8864,VALID,0,VALID,23.2282,VALID,40,VALID,0.00273437,
2010-01-07, 02:10:04,VALID,1009.07,VALID,0,VALID,28.8559,VALID,0,VALID,23.2069,VALID,40,VALID,0,
2010-01-07, 02:11:04,VALID,1009.05,VALID,0,VALID,28.8864,VALID,0,VALID,23.2069,VALID,40,VALID,0,
2010-01-07, 02:12:04,VALID,1009.04,VALID,0,VALID,28.8635,VALID,0,VALID,23.2282,VALID,40,VALID,0.0605469,
2010-01-07, 02:13:04,VALID,1009.04,VALID,0,VALID,28.8482,VALID,0,VALID,23.1874,VALID,40,VALID,0,
2010-01-07, 02:14:04,VALID,1009.03,VALID,0,VALID,28.8787,VALID,0,VALID,23.2087,VALID,40,VALID,0,
2010-01-07, 02:15:04,VALID,1009.02,VALID,0,VALID,28.8787,VALID,0,VALID,23.1874,VALID,40,VALID,0,
2010-01-07, 02:16:04,VALID,1009,VALID,0,VALID,28.9092,VALID,0,VALID,23.1874,VALID,40,VALID,0,
2010-01-07, 02:17:04,VALID,1008.99,VALID,0,VALID,28.8253,VALID,0,VALID,23.1679,VALID,40,VALID,0,
2010-01-07, 02:18:04,VALID,1008.99,VALID,0,VALID,28.9016,VALID,0,VALID,23.2087,VALID,40,VALID,0,
2010-01-07, 02:19:04,VALID,1008.98,VALID,0,VALID,28.9016,VALID,0,VALID,23.1892,VALID,40,VALID,0,
2010-01-07, 02:20:04,VALID,1008.98,VALID,0,VALID,28.772,VALID,0,VALID,23.1874,VALID,40,VALID,0,
2010-01-07, 02:21:04,VALID,1008.96,VALID,0,VALID,28.8711,VALID,0,VALID,23.1892,VALID,40,VALID,0,
2010-01-07, 02:22:04,VALID,1008.97,VALID,0,VALID,28.8253,VALID,0,VALID,23.1892,VALID,40,VALID,0,
2010-01-07, 02:23:04,VALID,1008.97,VALID,0,VALID,28.8253,VALID,0,VALID,23.1892,VALID,40,VALID,0,
2010-01-07, 02:24:04,VALID,1008.97,VALID,0,VALID,28.7796,VALID,0,VALID,23.1679,VALID,40,VALID,0,
2010-01-07, 02:25:04,VALID,1008.93,VALID,0,VALID,28.894,VALID,0,VALID,23.1485,VALID,40,VALID,0,
2010-01-07, 02:26:04,VALID,1008.95,VALID,0,VALID,28.8787,VALID,0,VALID,23.1485,VALID,40,VALID,0,
2010-01-07, 02:27:04,VALID,1008.96,VALID,0,VALID,28.833,VALID,0,VALID,23.1485,VALID,40,VALID,0,
2010-01-07, 02:28:04,VALID,1008.93,VALID,0,VALID,28.8253,VALID,0,VALID,23.1502,VALID,40,VALID,0,
2010-01-07, 02:29:04,VALID,1008.93,VALID,0,VALID,28.8177,VALID,0,VALID,23.1502,VALID,40,VALID,0,
2010-01-07, 02:30:04,VALID,1008.93,VALID,0,VALID,28.8177,VALID,0,VALID,23.1307,VALID,40,VALID,0,
2010-01-07, 02:31:04,VALID,1008.93,VALID,0,VALID,28.7643,VALID,0,VALID,23.1307,VALID,40,VALID,0,
2010-01-07, 02:32:04,VALID,1008.93,VALID,0,VALID,28.8025,VALID,0,VALID,23.1095,VALID,40,VALID,0,
2010-01-07, 02:33:04,VALID,1008.92,VALID,0,VALID,28.8559,VALID,0,VALID,23.1095,VALID,40,VALID,0,
2010-01-07, 02:34:04,VALID,1008.93,VALID,0,VALID,28.833,VALID,0,VALID,23.1095,VALID,40,VALID,0,
2010-01-07, 02:35:04,VALID,1008.93,VALID,0,VALID,28.7796,VALID,0,VALID,23.1095,VALID,40,VALID,0,
2010-01-07, 02:36:04,VALID,1008.95,VALID,0,VALID,28.772,VALID,0,VALID,23.1307,VALID,40,VALID,0,
2010-01-07, 02:37:04,VALID,1008.95,VALID,0,VALID,28.8177,VALID,0,VALID,23.1112,VALID,40,VALID,0,
2010-01-07, 02:38:04,VALID,1008.93,VALID,0,VALID,28.8025,VALID,0,VALID,23.1307,VALID,40,VALID,0,
2010-01-07, 02:39:04,VALID,1008.95,VALID,0,VALID,28.8253,VALID,0,VALID,23.1095,VALID,40,VALID,0,
2010-01-07, 02:40:04,VALID,1008.93,VALID,0,VALID,28.7872,VALID,0,VALID,23.1112,VALID,40,VALID,0,
2010-01-07, 02:41:04,VALID,1008.95,VALID,0,VALID,28.7948,VALID,0,VALID,23.1112,VALID,40,VALID,0,
2010-01-07, 02:42:04,VALID,1008.95,VALID,0,VALID,28.7796,VALID,0.105969,VALID,23.0883,VALID,40,VALID,0,
2010-01-07, 02:43:04,VALID,1008.95,VALID,0,VALID,28.7872,VALID,0.105969,VALID,23.0883,VALID,40,VALID,0,
2010-01-07, 02:44:04,VALID,1008.95,VALID,0,VALID,28.8025,VALID,0.105969,VALID,23.0688,VALID,40,VALID,0,
2010-01-07, 02:45:04,VALID,1008.92,VALID,0,VALID,28.8635,VALID,0.105969,VALID,23.0688,VALID,40,VALID,0,
2010-01-07, 02:46:04,VALID,1008.93,VALID,0,VALID,28.8177,VALID,0.105969,VALID,23.0688,VALID,40,VALID,0,
2010-01-07, 02:47:04,VALID,1008.91,VALID,0,VALID,28.8559,VALID,0.105969,VALID,23.0493,VALID,40,VALID,0,
2010-01-07, 02:48:04,VALID,1008.9,VALID,0,VALID,28.9016,VALID,0.105969,VALID,23.0511,VALID,40,VALID,0,
2010-01-07, 02:49:04,VALID,1008.92,VALID,0,VALID,28.833,VALID,0.105969,VALID,23.0493,VALID,40,VALID,0,
2010-01-07, 02:50:04,VALID,1008.91,VALID,0,VALID,28.8711,VALID,0.105969,VALID,23.0298,VALID,40,VALID,0,
2010-01-07, 02:51:04,VALID,1008.92,VALID,0,VALID,28.8559,VALID,0.105969,VALID,23.0298,VALID,40,VALID,0,
2010-01-07, 02:52:04,VALID,1008.93,VALID,0,VALID,28.9092,VALID,0.105969,VALID,23.0316,VALID,40,VALID,0,
2010-01-07, 02:53:04,VALID,1008.93,VALID,0,VALID,28.9016,VALID,0.211938,VALID,23.0103,VALID,40,VALID,0,
2010-01-07, 02:54:04,VALID,1008.93,VALID,0,VALID,28.8559,VALID,0.105969,VALID,23.0298,VALID,40,VALID,0,
2010-01-07, 02:55:04,VALID,1008.93,VALID,0,VALID,28.8101,VALID,0.105969,VALID,23.0298,VALID,40,VALID,0,
2010-01-07, 02:56:04,VALID,1008.94,VALID,0,VALID,28.8787,VALID,0.105969,VALID,23.0103,VALID,40,VALID,0,
2010-01-07, 02:57:04,VALID,1008.93,VALID,0,VALID,28.8864,VALID,0,VALID,22.9909,VALID,40,VALID,0,
2010-01-07, 02:58:04,VALID,1008.93,VALID,0,VALID,28.8711,VALID,0,VALID,23.0121,VALID,40,VALID,0,
2010-01-07, 02:59:04,VALID,1008.93,VALID,0,VALID,28.8482,VALID,0,VALID,22.9926,VALID,40,VALID,0,
2010-01-07, 03:00:04,VALID,1008.94,VALID,0,VALID,28.8559,VALID,0,VALID,22.9926,VALID,40,VALID,0,
2010-01-07, 03:01:04,VALID,1008.94,VALID,0,VALID,28.8482,VALID,0,VALID,22.9731,VALID,40,VALID,0,
2010-01-07, 03:02:04,VALID,1008.95,VALID,0,VALID,28.8482,VALID,0,VALID,22.9926,VALID,40,VALID,0,
2010-01-07, 03:03:04,VALID,1008.96,VALID,0,VALID,28.8406,VALID,0,VALID,22.9731,VALID,40,VALID,0,
2010-01-07, 03:04:04,VALID,1008.97,VALID,0,VALID,28.8635,VALID,0,VALID,22.9731,VALID,40,VALID,0,
2010-01-07, 03:05:04,VALID,1008.98,VALID,0,VALID,28.8406,VALID,0,VALID,22.9731,VALID,40,VALID,0,
2010-01-07, 03:06:04,VALID,1009.01,VALID,0,VALID,28.9245,VALID,0,VALID,22.9342,VALID,40,VALID,0,
2010-01-07, 03:07:04,VALID,1009.01,VALID,0,VALID,28.9245,VALID,0,VALID,22.9749,VALID,40,VALID,0,
2010-01-07, 03:08:04,VALID,1009.02,VALID,0,VALID,28.9169,VALID,0,VALID,22.9342,VALID,40,VALID,0,
2010-01-07, 03:09:04,VALID,1009.05,VALID,0,VALID,28.833,VALID,0,VALID,22.9342,VALID,40,VALID,0,
2010-01-07, 03:10:04,VALID,1009.05,VALID,0,VALID,28.8253,VALID,0,VALID,22.9342,VALID,40,VALID,0,
2010-01-07, 03:11:04,VALID,1009.03,VALID,0,VALID,28.8406,VALID,0,VALID,22.9342,VALID,40,VALID,0,
2010-01-07, 03:12:04,VALID,1009.07,VALID,0,VALID,28.8864,VALID,0,VALID,22.9342,VALID,40,VALID,0,
2010-01-07, 03:13:04,VALID,1009.06,VALID,0,VALID,28.894,VALID,0,VALID,22.9536,VALID,40,VALID,0,
2010-01-07, 03:14:04,VALID,1009.09,VALID,0,VALID,28.8787,VALID,0,VALID,22.9342,VALID,40,VALID,0,
2010-01-07, 03:15:04,VALID,1009.09,VALID,0,VALID,28.8101,VALID,0,VALID,22.9342,VALID,40,VALID,0,
2010-01-07, 03:16:04,VALID,1009.1,VALID,0,VALID,28.833,VALID,0,VALID,22.9342,VALID,40,VALID,0,
2010-01-07, 03:17:04,VALID,1009.11,VALID,0,VALID,28.8559,VALID,0,VALID,22.9536,VALID,40,VALID,0,
2010-01-07, 03:18:04,VALID,1009.11,VALID,0,VALID,28.7643,VALID,0,VALID,22.9536,VALID,40,VALID,0,
2010-01-07, 03:19:04,VALID,1009.1,VALID,0,VALID,28.7872,VALID,0,VALID,22.9359,VALID,40,VALID,0,
2010-01-07, 03:20:04,VALID,1009.09,VALID,0,VALID,28.833,VALID,0,VALID,22.9147,VALID,40,VALID,0,
2010-01-07, 03:21:04,VALID,1009.1,VALID,0,VALID,28.8406,VALID,0,VALID,22.9147,VALID,40,VALID,0,
2010-01-07, 03:22:04,VALID,1009.08,VALID,0,VALID,28.8406,VALID,0,VALID,22.9147,VALID,40,VALID,0,
2010-01-07, 03:23:04,VALID,1009.09,VALID,0,VALID,28.8101,VALID,0,VALID,22.8952,VALID,40,VALID,0,
2010-01-07, 03:24:04,VALID,1009.07,VALID,0,VALID,28.8482,VALID,0,VALID,22.8757,VALID,40,VALID,0,
2010-01-07, 03:25:04,VALID,1009.07,VALID,0,VALID,28.8482,VALID,0,VALID,22.8757,VALID,40,VALID,0,
2010-01-07, 03:26:04,VALID,1009.08,VALID,0,VALID,28.8864,VALID,0,VALID,22.8969,VALID,40,VALID,0,
2010-01-07, 03:27:04,VALID,1009.07,VALID,0,VALID,28.8482,VALID,0,VALID,22.8562,VALID,40,VALID,0,
2010-01-07, 03:28:04,VALID,1009.07,VALID,0,VALID,28.9016,VALID,0,VALID,22.8775,VALID,40,VALID,0,
2010-01-07, 03:29:04,VALID,1009.08,VALID,0,VALID,28.8711,VALID,0,VALID,22.8562,VALID,40,VALID,0,
2010-01-07, 03:30:04,VALID,1009.1,VALID,0,VALID,28.8635,VALID,0,VALID,22.858,VALID,40,VALID,0,
2010-01-07, 03:31:04,VALID,1009.09,VALID,0,VALID,28.9016,VALID,0,VALID,22.8368,VALID,40,VALID,0,
2010-01-07, 03:32:04,VALID,1009.06,VALID,0,VALID,28.8711,VALID,0,VALID,22.8385,VALID,40,VALID,0,
2010-01-07, 03:33:04,VALID,1009.09,VALID,0,VALID,28.894,VALID,0,VALID,22.8173,VALID,40,VALID,0,
2010-01-07, 03:34:04,VALID,1009.1,VALID,0,VALID,28.8787,VALID,0,VALID,22.8173,VALID,40,VALID,0,
2010-01-07, 03:35:04,VALID,1009.13,VALID,0,VALID,28.8864,VALID,0,VALID,22.8173,VALID,40,VALID,0,
2010-01-07, 03:36:04,VALID,1009.11,VALID,0,VALID,28.894,VALID,0,VALID,22.7978,VALID,40,VALID,0,
2010-01-07, 03:37:04,VALID,1009.13,VALID,0,VALID,28.8635,VALID,0,VALID,22.7978,VALID,40,VALID,0,
2010-01-07, 03:38:04,VALID,1009.15,VALID,0,VALID,28.8635,VALID,0,VALID,22.7978,VALID,40,VALID,0,
2010-01-07, 03:39:04,VALID,1009.12,VALID,0,VALID,28.8253,VALID,0,VALID,22.8173,VALID,40,VALID,0,
2010-01-07, 03:40:04,VALID,1009.11,VALID,0,VALID,28.8635,VALID,0,VALID,22.8173,VALID,40,VALID,0,
2010-01-07, 03:41:04,VALID,1009.12,VALID,0,VALID,28.8711,VALID,0,VALID,22.8385,VALID,40,VALID,0,
2010-01-07, 03:42:04,VALID,1009.13,VALID,0,VALID,28.8482,VALID,0,VALID,22.8173,VALID,40,VALID,0,
2010-01-07, 03:43:04,VALID,1009.11,VALID,0,VALID,28.8406,VALID,0,VALID,22.8368,VALID,40,VALID,0,
2010-01-07, 03:44:04,VALID,1009.11,VALID,0,VALID,28.7872,VALID,0,VALID,22.8562,VALID,40,VALID,0,
2010-01-07, 03:45:04,VALID,1009.09,VALID,0,VALID,28.7415,VALID,0.105969,VALID,22.8562,VALID,40,VALID,0,
2010-01-07, 03:46:04,VALID,1009.08,VALID,0,VALID,28.7186,VALID,0.105969,VALID,22.8545,VALID,40,VALID,0,
2010-01-07, 03:47:04,VALID,1009.1,VALID,0,VALID,28.6881,VALID,0.105969,VALID,22.8545,VALID,40,VALID,0,
2010-01-07, 03:48:04,VALID,1009.07,VALID,0,VALID,28.7491,VALID,0.105969,VALID,22.8757,VALID,40,VALID,0,
2010-01-07, 03:49:04,VALID,1009.06,VALID,0,VALID,28.7567,VALID,0.105969,VALID,22.874,VALID,40,VALID,0,
2010-01-07, 03:50:04,VALID,1009.08,VALID,0,VALID,28.711,VALID,0.105969,VALID,22.9147,VALID,40,VALID,0,
2010-01-07, 03:51:04,VALID,1009.09,VALID,0,VALID,28.6347,VALID,0.105969,VALID,22.9147,VALID,40,VALID,0,
2010-01-07, 03:52:04,VALID,1009.09,VALID,0,VALID,28.5966,VALID,0.105969,VALID,22.9129,VALID,40,VALID,0,
2010-01-07, 03:53:04,VALID,1009.09,VALID,0,VALID,28.6195,VALID,0.105969,VALID,22.9129,VALID,40,VALID,0,
2010-01-07, 03:54:04,VALID,1009.09,VALID,0,VALID,28.6881,VALID,0,VALID,22.9342,VALID,40,VALID,0,
2010-01-07, 03:55:04,VALID,1009.13,VALID,0,VALID,28.5661,VALID,0,VALID,22.9129,VALID,40,VALID,0,
2010-01-07, 03:56:04,VALID,1009.15,VALID,0,VALID,28.5661,VALID,0.105969,VALID,22.9324,VALID,40,VALID,0,
2010-01-07, 03:57:04,VALID,1009.14,VALID,0,VALID,28.6042,VALID,0,VALID,22.9342,VALID,40,VALID,0,
2010-01-07, 03:58:04,VALID,1009.15,VALID,0,VALID,28.5661,VALID,0,VALID,22.9554,VALID,40,VALID,0,